Weather History for KFMN - August, 2013

Change the Weather History Date:

Thursday, August 29, 2013

  Actual Average Record
Temperature  
Mean Temperature 78 °F -  
Max Temperature 91 °F 85 °F 95 °F (2012)
Min Temperature 66 °F 56 °F 48 °F (2014)
Cooling Degree Days 14    
Growing Degree Days 28 (Base 50)    
Moisture  
Dew Point 51 °F    
Average Humidity 41    
Maximum Humidity 59    
Minimum Humidity 16    
Precipitation  
Precipitation 0.00 in - - ()
Sea Level Pressure  
Sea Level Pressure 30.04 in    
Wind  
Wind Speed 6 mph (ENE)    
Max Wind Speed 14 mph    
Max Gust Speed -    
Visibility 10 miles    
Events Rain , Thunderstorm    
Averages and records for this station are not official NWS values.
T = Trace of Precipitation, MM = Missing Value Source: NWS Daily Summary

Daily Weather History Graph

Daily Weather History Graph

Search for Another Location

Airport or City:

Trip Planner

Search our weather history database for the weather conditions in past years. The results will help you decide how hot, cold, wet, or windy it might be!

Date:

Astronomy

Aug. 29, 2013 Rise Set
Actual Time 6:41 AM MDT 7:44 PM MDT
Civil Twilight 6:15 AM MDT 8:11 PM MDT
Nautical Twilight 5:43 AM MDT 8:43 PM MDT
Astronomical Twilight 5:10 AM MDT 9:15 PM MDT
Moon 12:40 AM MDT (8/29) 3:11 PM MDT (8/29)
Length of Visible Light 13h 56m
Length of Day
13h 03m
Last Quarter, 37% of the Moon is Illuminated
Aug 29
Last Quarter
Sep 5
New
Sep 12
First Quarter
Sep 19
Full
Sep 26
Last Quarter

Hourly Weather History & Observations

Time (MDT) Temp. Heat Index Dew Point Humidity Pressure Visibility Wind Dir Wind Speed Gust Speed Precip Events Conditions
12:53 AM 73.0 °F - 51.1 °F 46% 30.01 in 10.0 mi SSW 5.8 mph - N/A   Partly Cloudy
1:53 AM 70.0 °F - 53.1 °F 55% 30.00 in 10.0 mi WNW 4.6 mph - N/A   Clear
2:53 AM 68.0 °F - 52.0 °F 56% 30.01 in 10.0 mi NE 5.8 mph - N/A   Clear
3:53 AM 66.9 °F - 52.0 °F 59% 30.01 in 10.0 mi East 8.1 mph - N/A   Clear
4:53 AM 66.9 °F - 51.1 °F 57% 30.02 in 10.0 mi ENE 3.5 mph - N/A   Clear
5:53 AM 66.9 °F - 52.0 °F 59% 30.02 in 10.0 mi East 6.9 mph - N/A   Partly Cloudy
6:53 AM 66.9 °F - 51.1 °F 57% 30.05 in 10.0 mi East 5.8 mph - N/A   Mostly Cloudy
7:53 AM 66.9 °F - 51.1 °F 57% 30.08 in 10.0 mi East 6.9 mph - N/A   Clear
8:53 AM 70.0 °F - 52.0 °F 53% 30.10 in 10.0 mi East 5.8 mph - N/A   Partly Cloudy
9:53 AM 73.0 °F - 52.0 °F 48% 30.10 in 10.0 mi East 5.8 mph - N/A   Clear
10:53 AM 77.0 °F - 54.0 °F 45% 30.09 in 10.0 mi SE 5.8 mph - N/A   Clear
11:53 AM 81.0 °F 80.4 °F 53.1 °F 38% 30.08 in 10.0 mi Variable 3.5 mph - N/A   Clear
12:53 PM 86.0 °F 84.0 °F 53.1 °F 32% 30.04 in 10.0 mi NNE 4.6 mph - N/A   Clear
1:53 PM 87.1 °F - 51.1 °F 29% 30.03 in 10.0 mi West 8.1 mph - N/A   Clear
2:53 PM 88.0 °F - 48.9 °F 26% 30.01 in 10.0 mi WSW 6.9 mph - N/A   Clear
3:53 PM 89.1 °F - 48.9 °F 25% 29.99 in 10.0 mi Calm Calm - N/A   Clear
4:53 PM 89.1 °F - 48.9 °F 25% 29.97 in 10.0 mi WSW 10.4 mph - N/A   Clear
5:53 PM 88.0 °F - 48.0 °F 25% 29.98 in 10.0 mi West 8.1 mph - N/A   Clear
6:53 PM 86.0 °F - 48.9 °F 28% 29.98 in 10.0 mi West 9.2 mph - N/A   Clear
7:53 PM 84.0 °F - 48.9 °F 29% 30.01 in 10.0 mi North 8.1 mph - N/A   Scattered Clouds
8:12 PM 82.4 °F - 48.2 °F 30% 30.21 in 10.0 mi ENE 11.5 mph - N/A Thunderstorm Mostly Cloudy
8:53 PM 79.0 °F - 50.0 °F 36% 30.04 in 10.0 mi NE 10.4 mph - N/A Thunderstorm Mostly Cloudy
9:17 PM 75.2 °F - 53.6 °F 47% 30.24 in 10.0 mi East 13.8 mph - 0.00 in Rain Light Rain
9:53 PM 75.9 °F - 54.0 °F 46% 30.06 in 10.0 mi East 4.6 mph - 0.00 in   Overcast
10:53 PM 75.0 °F - 53.1 °F 46% 30.04 in 10.0 mi NE 5.8 mph - N/A   Clear
11:53 PM 72.0 °F - 55.0 °F 55% 30.05 in 10.0 mi ENE 5.8 mph - N/A   Clear